Regional Weather Roundup
Issued by NWS

Home | Current Version | Previous Version | Text Only | Print | Product List | Glossary Off
Versions: 1 2 3 4 5 6 7 8 9 10 11 12 13 14 15 16 17 18 19 20 21 22 23 24 25 26 27 28 29 30 31 32 33 34 35 36 37 38 39 40 41 42 43 44 45 46 47 48 49 50

000
ASUS43 KDMX 270207
RWRIA

WEATHER ROUNDUP FOR IOWA
NATIONAL WEATHER SERVICE DES MOINES IA
800 PM CST WED NOV 26 2014

NOTE: "FAIR" INDICATES FEW OR NO CLOUDS BELOW 12,000 FEET WITH NO
SIGNIFICANT WEATHER AND/OR OBSTRUCTIONS TO VISIBILITY.

* - THESE STATIONS ARE NOT NWS STATIONS...THUS NOT UNDER NWS
QUALITY CONTROL.  THEY ALSO DO NOT REPORT WEATHER SUCH
AS PRECIPITATION OR FOG.

IAZ001>003-012>014-020>022-031>034-043>046-270300-
   NORTHWEST IOWA

CITY           SKY/WX    TMP DP  RH WIND       PRES   REMARKS
CARROLL *      CLOUDY    21  18  86 N17G23    30.33R WCI   7
CHEROKEE *     CLOUDY    16  12  86 NW8       30.38R WCI   5
DENISON *      CLOUDY    23  19  86 N17G24    30.33S WCI   9
LE MARS *      CLEAR     14   9  79 N6        30.41R WCI   5
ORANGE CITY *  PTCLDY    14   9  79 N8        30.37S WCI   3
SHELDON *      CLOUDY    12   7  79 N14G20    30.36S WCI  -3
SIOUX CITY     MOCLDY    18  13  80 NW20      30.41R WCI   2
SPENCER        LGT SNOW  14  10  84 N14       30.36R FOG     WCI  -1
STORM LAKE *   CLOUDY    18  14  86 NW16      30.35R WCI   3
$$

IAZ055>058-069>071-079>083-090>094-270300-
   SOUTHWEST IOWA

CITY           SKY/WX    TMP DP  RH WIND       PRES   REMARKS
ATLANTIC *     CLOUDY    23  19  86 N18G24    30.33R WCI   9
AUDUBON *      CLEAR     21  16  79 NW17      30.33R WCI   7
CLARINDA *     CLOUDY    27  21  80 N14G25    30.36R WCI  15
COUNCIL BLFS * CLOUDY    23  21  93 NW15G25   30.35R WCI  10
CRESTON *      CLOUDY    25  23  93 N21G30    30.28R WCI  10
HARLAN  *      CLOUDY    21  19  93 N16G23    30.37R WCI   7
LAMONI         CLOUDY    28  25  88 N18G26    30.24R WCI  15
RED OAK *      CLOUDY    25  21  86 N16G24    30.35R WCI  12
SHENANDOAH *   CLOUDY    27  21  80 N16       30.37R WCI  14
$$

IAZ047>049-059>061-072>074-084-270300-
   CENTRAL IOWA

CITY           SKY/WX    TMP DP  RH WIND       PRES   REMARKS
AMES           LGT SNOW  25  22  88 N17G25    30.28R FOG     WCI  12
ANKENY *       LGT SNOW  28  27  93 NW14      30.28R WCI  17
CHARITON *     LGT RAIN  30  28  93 N18       30.23R WCI  18
DES MOINES     LGT SNOW  29  25  85 N13       30.28R FOG     WCI  19
GRINNELL*      LGT SNOW  28  27  93 N9G16     30.23R WCI  20
KNOXVILLE *    LGT SNOW  30  27  86 N10       30.23R WCI  21
MARSHALLTOWN   CLOUDY    26  24  92 N10       30.24R FOG     WCI  16
PELLA *        LGT SNOW  30  28  93 N9        30.26R WCI  22
PERRY *        LGT SNOW  23  21  93 N20G28    30.31R WCI   8
$$

IAZ004>006-015-016-023>025-035-036-270300-
   NORTH CENTRAL IOWA

CITY           SKY/WX    TMP DP  RH WIND       PRES   REMARKS
ALGONA *       CLOUDY    18  14  86 N15G22    30.33R WCI   3
CLARION *      MIX PCPN  21  21 100 N21G26    30.29R WCI   6
ESTHERVILLE    CLOUDY    12   9  87 NW20      30.35R WCI  -6
FORT DODGE *   CLOUDY    19  14  79 N12G24    30.32R WCI   7
MASON CITY     CLOUDY    24  22  91 N17       30.28R WCI  11
FOREST CITY *  CLOUDY    21  19  93 NW14      30.29R WCI   8
IOWA FALLS *   CLOUDY    27  23  86 NW13G20   30.27R WCI  16
$$

IAZ007>011-017>019-026>030-037>042-050>054-066-270300-
   NORTHEAST IOWA

CITY           SKY/WX    TMP DP  RH WIND       PRES   REMARKS
CEDAR RAPIDS   LGT SNOW  27  25  92 N9        30.21R FOG     WCI  18
CHARLES CITY * CLOUDY    25  23  93 N9        30.26R WCI  15
CLINTON *      CLOUDY    25  19  80 N12       30.23R WCI  14
DECORAH *      FLURRIES  23  21  93 N6        30.22R WCI  16
DUBUQUE        CLOUDY    23  19  85 N12       30.20R WCI  12
MONTICELLO *   CLOUDY    27  23  86 N7        30.22R FOG     WCI  19
OELWEIN *      CLOUDY    25  23  93 N9        30.23R WCI  15
WATERLOO       CLOUDY    25  22  88 N9        30.24R WCI  15
$$

IAZ064-065-067-068-078-270300-
   EAST CENTRAL IOWA

CITY           SKY/WX    TMP DP  RH WIND       PRES   REMARKS
DAVENPORT      CLOUDY    26  19  74 N8        30.21R WCI  18
IOWA CITY      LGT SNOW  28  25  88 N15       30.24R FOG     WCI  16
MT. PLEASANT * LGT SNOW  28  28 100 N8        30.20R WCI  20
MUSCATINE *    LGT SNOW  28  25  86 NE12      30.22R WCI  18
QUAD CITIES    CLOUDY    28  20  71 N9        30.20R WCI  19
$$

IAZ062-063-075>077-085>089-095>099-270300-
   SOUTHEAST IOWA

CITY           SKY/WX    TMP DP  RH WIND       PRES   REMARKS
BURLINGTON     LGT SNOW  29  27  92 NE12      30.17R FOG     WCI  19
FAIRFIELD *    LGT SNOW  28  27  93 N13       30.21R WCI  18
FORT MADISON * LGT SNOW  30  28  93 N9        30.18R WCI  22
KEOKUK *       LGT SNOW  30  30 100 NE10      30.16R WCI  21
OSKALOOSA *    LGT SNOW  28  27  93 N8        30.23R WCI  20
CENTERVILLE *  MIX PCPN  28  28 100 N8        30.21R WCI  20
OTTUMWA        LGT SNOW  28  26  92 N8        30.22R FOG     WCI  20
WASHINGTON *   LGT SNOW  28  28 100 NE8G16    30.21R WCI  20
$$

ABBREVIATIONS USED IN REMARKS
   TC - TEMPERATURES IN CELSIUS
  WCI - WIND CHILL INDEX
   HX - HEAT INDEX
  VSB - VISIBILITY
$$



USA.gov is the U.S. government's official web portal to all federal, state and local government web resources and services.